Regional Weather Roundup
Issued by NWS Pendleton, OR

Current Version |  Previous Version |  Text Only |  Print | Product List |  Glossary On
Versions: 1 2 3 4 5 6 7 8 9 10 11 12 13 14 15 16 17 18 19 20 21 22 23 24 25 26 27 28 29 30 31 32 33 34 35 36 37 38 39 40 41 42 43 44 45 46 47 48 49 50
134
ASUS46 KPDT 280410
RWRPDT
PENDLETON REGIONAL WEATHER ROUNDUP
NATIONAL WEATHER SERVICE PENDLETON OREGON
900 PM PDT MON MAY 27 2024

NOTE: FAIR INDICATES FEW OR NO CLOUDS BELOW 12,000 FEET WITH NO
SIGNIFICANT WEATHER AND/OR OBSTRUCTIONS TO VISIBILITY.

# INDICATES UNOFFICIAL STATION AND DATA

WAZ520-280510-
EAST SLOPES OF WASHINGTON CASCADES

CITY            SKY/WX      TMP DP  RH  WIND    PRES   REMARKS
#BULLFROG       N/A         61  48  62  W3      N/A
#CLE ELUM HS    N/A         60  47  62  W2      29.97F
#ELK HTS DOT    N/A         59  48  67  CALM    N/A
#GLENWOOD       N/A         63  49  60  SW3     29.98R
#TROUT LAKE 1NE N/A         63  44  50  CALM    29.98R
#TROUT LAKE 1E  N/A         62  43  50  CALM    30.03S
$$

WAZ521-280510-
SIMCOE HIGHLANDS

CITY            SKY/WX      TMP DP  RH  WIND    PRES   REMARKS
#SATUS PASS DOT N/A         56  40  55  W8      N/A
#CENTERVILLE 1SWN/A         65  48  54  W7      29.91S
#LYLE 6NE       N/A         65  50  58  S5      29.98R
#PITT 4SE       N/A         60  47  62  SW2     29.99R
$$

WAZ026-280510-
KITTITAS VALLEY

CITY            SKY/WX      TMP DP  RH  WIND    PRES   REMARKS
ELLENSBURG AP   FAIR        65  48  54  NW12    30.00S
#ELLENSBURG CWU N/A         67  52  59  CALM    29.92S
#ELLENSBURG 1E  N/A         67  50  54  W1      29.99F
#KITTITAS 3S    N/A         61  51  70  CALM    29.96F
#MANASTASH RDG  N/A         63  40  43  W2      N/A
#ROCKY CYN DOT  N/A         64  45  50  NW8     N/A
#RYEGRASS DOT   N/A         65  34  31  E2      N/A
#THORP 6N       N/A         61  50  67  CALM    29.91F
$$

WAZ027-280510-
YAKIMA VALLEY

CITY            SKY/WX      TMP DP  RH  WIND    PRES   REMARKS
SUNNYSIDE AP    FAIR        69  47  45  N7      29.96S
YAKIMA AIRPORT  FAIR        68  46  45  SW3     29.97S
YAKIMA-VAGABOND CLOUDY      68  40  36  E6      29.94S
#MABTON         N/A         70  48  46  CALM    29.96S
#NACHES 2SW     N/A         65  51  60  CALM    30.02S
#OUTLOOK DOT    N/A         71  44  38  E3      N/A
#PARKER DOT     N/A         70  45  41  E2      N/A
#TERRACE HTS    N/A         71  45  39  CALM    29.89S
#I82 S UMTANUM RN/A         67  37  33  N5      N/A
#UNION GAP DOT  N/A         70  48  46  SE1     N/A
#ZILLAH DOT     N/A         71  49  46  N3      N/A
$$

WAZ028-280510-
LOWER COLUMBIA BASIN...WASHINGTON

CITY            SKY/WX      TMP DP  RH  WIND    PRES   REMARKS
PASCO           FAIR        69  53  57  N3      29.95S
PROSSER AWOS    N/A         73  46  38  E6      29.98S
RICHLAND AWOS   FAIR        74  48  40  CALM    29.96S
#BASIN CITY 5SW N/A         68  50  53  E3      29.96S
#BENTON CITY    N/A         72  48  43  SE1     29.85R
#CONNELL 5N     N/A         64  47  54  CALM    29.96S
#KENNEWICK 3S   N/A         71  47  42  CALM    29.98F
#PROSSER DOT    N/A         74  48  40  NE1     N/A
#SAGEMOOR 2W    N/A         72  46  39  CALM    29.97S
$$

WAZ029-280510-
FOOTHILLS OF THE BLUES...WASHINGTON

CITY            SKY/WX      TMP DP  RH  WIND    PRES   REMARKS
WALLA WALLA AP  MOCLEAR     69  50  51  E6      29.97S
#CLYDE 6NW      N/A         67  46  47  CALM    30.00S
#DELANEY DOT    N/A         69  46  44  SE2     N/A
#LOWDEN 2SE     N/A         68  54  61  CALM    29.81F
#WALLA WALLA 5E N/A         62  55  78  CALM    N/A
#WHITMAN MISSIONN/A         71  54  55  CALM    30.00F
$$

WAZ030-280510-
BLUE MOUNTAINS...WASHINGTON

CITY            SKY/WX      TMP DP  RH  WIND    PRES   REMARKS
$$

ORZ009-041-WAZ024-280510-
COLUMBIA RIVER GORGE

CITY            SKY/WX      TMP DP  RH  WIND    PRES   REMARKS
HOOD RIVER AP   FAIR        64  46  52  SW3     30.00R
THE DALLES AP   FAIR        71  48  44  N14     29.96R
#CELILO DOT     N/A         74  44  34  SW6     N/A
#LYLE           N/A         70  50  49  W8      29.98R
#MARYHILL       N/A         70  46  42  S6      N/A
#RUFUS DOT      N/A         76  44  32  W17G28  N/A

$$

ORZ510-280510-
NORTH CENTRAL OREGON

CITY            SKY/WX      TMP DP  RH  WIND    PRES   REMARKS
#ANTELOPE       N/A         63  45  52  CALM    29.81R
#COW CYN RST AREN/A         61  47  60  N10     N/A
#DUFUR          N/A         62  46  56  CALM    29.94R
#GRASS VALLEY 1SN/A         61  46  58  CALM    29.92S
#KENT DOT       N/A         61  41  48  NW3     N/A
#SHANIKO 5WSW   N/A         N/A N/A N/A N12     N/A
#WAPANITIA AIRPON/A         64  46  52  NW1     29.99R
#WASCO DOT      N/A         64  45  50  W1      N/A
#WASCO 5NE      N/A         65  46  50  CALM    29.93S
$$

ORZ511-280510-
CENTRAL OREGON

CITY            SKY/WX      TMP DP  RH  WIND    PRES   REMARKS
BEND AIRPORT    MOCLEAR     66  41  40  N8      30.04R
MADRAS AIRPORT  FAIR        61  43  51  N12     30.06R
PRINEVILLE AP   FAIR        66  43  43  N12     30.03R
REDMOND AIRPORT MOCLEAR     67  43  42  N12     30.03R
#ASHWOOD SCHOOL N/A         66  45  47  N6      29.98R
#CULVER         N/A         63  46  54  CALM    29.01R
#PRINEVILLE     N/A         70  47  44  CALM    29.98R

$$


ORZ509-280510-
EAST SLOPES OF OREGON CASCADES

CITY            SKY/WX      TMP DP  RH  WIND    PRES   REMARKS
SUNRIVER AWOS   PTCLDY      57  45  64  CALM    30.12R
#BLUE BOX PASS  N/A         53  N/A N/A NW3     N/A
#CAMP SHERMAN   N/A         66  45  47  CALM    30.00F
#LA PINE DOT    N/A         63  45  52  W7      N/A
#LAVA BUTTE DOT N/A         62  44  52  E6      N/A
#SISTERS ODOT   N/A         61  38  42  NW3     N/A
#WANOGA BUTTE D N/A         55  40  57  CALM    N/A

$$

ORZ044-280510-
LOWER COLUMBIA BASIN...OREGON

CITY            SKY/WX      TMP DP  RH  WIND    PRES   REMARKS
HERMISTON       FAIR        70  47  44  E3      29.96S
#BOARDMAN SCHOOLN/A         75  49  40  CALM    29.88S
#ECHO 8SW       N/A         67  54  63  SW1     29.97F
#I-84 EX 198 DOTN/A         72  45  38  E3      N/A
#UMATILLA       N/A         75  48  38  CALM    29.85S
$$

ORZ507-280510-
NORTHERN FOOTHILLS OF THE BLUES

CITY            SKY/WX      TMP DP  RH  WIND    PRES   REMARKS
PENDLETON AIRPT FAIR        65  47  52  N6      29.99R
#ATHENA         N/A         66  53  63  E1      29.95R
#CAYUSE         N/A         66  51  58  CALM    29.92S
#HELIX 3N       N/A         64  49  58  CALM    30.01F
#HOLDMAN 5SE    N/A         63  51  65  CALM    29.98S
#HOLDMAN 6E     N/A         64  52  65  CALM    29.72S
#M-FREEWATER 5SEN/A         67  52  59  CALM    29.97S
#PDT SUNRIDGE   N/A         71  48  44  CALM    29.95S
#TUTUILLA       N/A         63  52  67  N1      30.04R
#UMAPINE 2E     N/A         67  57  70  CALM    29.92S

$$

ORZ508-280510-
SOUTHERN FOOTHILLS OF THE BLUES

CITY            SKY/WX      TMP DP  RH  WIND    PRES   REMARKS
#AJAX           N/A         64  42  45  W3      30.03S
#HEPPNER EOC    N/A         66  48  52  CALM    29.89S
#HEPPNER 4NE    N/A         56  49  77  CALM    29.98S
#RUGGS 2SW      N/A         63  48  58  CALM    29.99S

$$

ORZ502-503-280510-
BLUE MOUNTAINS

CITY            SKY/WX      TMP DP  RH  WIND    PRES   REMARKS
MEACHAM         FAIR        56  45  66  CALM    30.08R
#BATTLE MTN DOT N/A         56  37  49  N2      N/A
#HARDMAN 10S    N/A         57  46  67  N5      30.16S
#LADD CREEK ODOTN/A         64  47  54  NW6     N/A
#N POWDER DOT   N/A         64  39  40  W2      N/A
#TOLLGATE       N/A         54  47  77  CALM    30.12F
#WESTON 4E      N/A         60  47  62  CALM    29.92S
$$

ORZ505-280510-
JOHN DAY BASIN

CITY            SKY/WX      TMP DP  RH  WIND    PRES   REMARKS
JOHN DAY        THUNDER     65  44  46  NW12    30.05R
#MITCHELL 8NW   N/A         64  44  48  NW1     29.92R
#MT. VERNON 5SE N/A         65  44  46  S1      30.07R
$$

ORZ506-280510-
OCHOCO AND JOHN DAY HIGHLANDS

CITY            SKY/WX      TMP DP  RH  WIND    PRES   REMARKS
#BUCK CREEK DOT N/A         64  42  45  NE8     N/A
#HORSE RIDGE DO N/A         65  37  35  NW9     N/A
#KEYES SMT DOT  N/A         62  44  52  CALM    N/A
#PAULINA ODOT   N/A         67  49  52  N3      N/A
#PRAIRIE CITY   N/A         67  48  50  E1      29.92R
#SENECA 9NW     N/A         58  47  67  CALM    29.93R
$$

ORZ049-280510-
GRANDE RONDE VALLEY

CITY            SKY/WX      TMP DP  RH  WIND    PRES   REMARKS
LA GRANDE       FAIR        66  49  54  W8      30.01R
#COVE SCHOOL    N/A         68  53  59  CALM    30.01R
#ELGIN 1E       N/A         67  52  59  CALM    N/A
#IMBLER SCHOOL  N/A         64  50  60  CALM    29.96R
#ISLAND CITY 4N N/A         64  54  70  CALM    30.04S
#LADD CYN DOT   N/A         67  49  52  SE8     N/A
#UNION 1S       N/A         68  51  55  CALM    29.91R
$$

ORZ050-280510-
WALLOWA COUNTY

CITY            SKY/WX      TMP DP  RH  WIND    PRES   REMARKS
#IMNAHA SCHOOL  N/A         67  47  49  CALM    29.93R
#JOSEPH 3N      N/A         58  45  62  CALM    30.06S
#LOSTINE 3SE    N/A         58  45  62  CALM    30.14R
#MT HOWARD 8000 N/A         49  31  50  SE3     30.24R
#WALLOWA LAKE   N/A         56  43  62  CALM    30.14R
#WALLOWA SCHOOL N/A         64  50  60  CALM    29.92R



$$